Terug naar catalogus

PERSEUS M2

ActiefMilitairSSO
NORAD 40037·PAYLOAD·🇷🇺 Russia

Gelanceerd Jun 19, 2014 vanaf Dombarovsky

Loading…

Volgende Passages (komende 24 uur)

TLE

VersSource: Space-Track

Epoch: Sep 14, 2026, 13:53 UTC

1 40037U 14033AD  26257.57914350  .00000768  00000-0  74375-4 0  9992
2 40037  98.0057 209.9906 0012407  10.9334 349.2154 14.95736563664142

Volg PERSEUS M2 in realtime met AllMySat

Download on the App Store